Weather in Petrushino

Russia / Ryazan Oblast     53°45′16″N   39°23′30″E
temp.,
°C
wind,
m/s
gust,
m/s
humid.,
%
clouds,
%
prec.,
mm/h
press.,
hPa
HPBL,
m
27 february, sat
sat2700:00+1w8159160 0.0 1005567
03:000w7159069 0.0 1005564
06:00+1wnw7159186 0.0 1003842
09:00+1wnw9169788 0.1 1004872
12:00−2nnw9158598 0.3 1006830
15:00−6nnw7118785 0.3 1009618
18:00−7nnw4993100 0.0 1010280
21:00−9nnw339688 0.0 101355
28 february, sun
sun2800:00−6nw279698 0.1 1014376
03:00−9nw479691 0.1 1015153
06:00−9nw349680 0.0 101598
09:00−7nw259681 0.1 1015219
12:00−4nnw359386 0.1 1015357
15:00−3nnw369190 0.1 1015468
18:00−4n359397 0.0 1016255
21:00−4nne249699 0.1 1019160
1 march, mon
mon100:00−5ene2296100 0.1 102071
03:00−6nnw1195100 0.1 102321
06:00−8nnw239596 0.0 102422
09:00−8nnw119683 0.1 102525
12:00−4w239280 0.0 1025289
15:00−2wsw469486 0.0 1025364
18:00−3wsw499392 0.0 1023384
21:00−3wsw6119496 0.1 1021440
2 march, tue
tue200:00−1wsw61293100 0.0 1018563
03:000wsw81497100 0.3 1015551
06:00+1w81494100 0.2 1011796
09:00+1wnw81498100 0.3 1010845
12:00+1nw8149189 0.1 1010970
15:00+1nw8138587 0.3 10111055
18:00−1nw6138870 0.1 1011558
21:00−2nw6148984 0.1 1012542
3 march, wed
wed300:00−3nw6148932 0.0 1012503
03:00−3nw6139263 0.0 1013487
06:00−4nw6129393 0.1 1014538
09:00−4nnw8148997 0.3 1016817
12:00−3nnw7128690 0.0 1017793
15:00−2nnw7128675 0.0 10181147
18:00−3nw5129098 0.3 1019622
21:00−5nw5128949 0.3 1021312